User: anonymous   Login
Location: NJAA Observatory
(40.6819°N, 74.8979°W)
Time: 02:40:17
(UTC-05:00)
Language:

Cosmos 2082 - Orbit

View from above orbital plane
View from above orbital plane
View from above satellite
View from above satellite

Ground track
Ground track

The orbit data is extracted from the following two-line orbital elements,

1 20624U 90046A   17056.65337594 -.00000236  00000-0 -98562-4 0  9991
2 20624  71.0396  88.0126 0015997 206.8254 153.2043 14.14219070381420
Epoch (UTC): 25 February 2017 15:40:51
Eccentricity: 0.0015997
inclination: 71.0396°
perigee height: 833 km
apogee height: 856 km
right ascension of ascending node: 88.0126°
argument of perigee: 206.8254°
revolutions per day: 14.14219070
mean anomaly at epoch: 153.2043°
orbit number at epoch: 38142

The dashed part of the orbit path shows where the satellite is in the earth's shadow,  

DLR